Location: Eastchurch
(51.4000°N, 0.8667°E)
Time: 00:29:38
(UTC+00:00)

Nadezhda 3 Rocket - Pass Details

Date: 19 January 2026
Orbit: 956 x 998 km, 82.9° (Epoch: 9 February)

Event Time Altitude Azimuth Distance (km) Brightness Sun altitude
Rises 17:44:03 0° 172° (S) 3,623 7.1 -12.2°
Reaches altitude 10° 17:46:34 10° 168° (SSE) 2,681 6.4 -12.5°
Maximum altitude 17:52:31 55° 92° (E) 1,143 4.0 -13.4°
Drops below altitude 10° 17:58:32 10° 17° (NNE) 2,712 6.0 -14.3°
Sets 18:01:05 0° 13° (NNE) 3,668 6.7 -14.7°
